Flag for United Kingdom Weather past 2 weeks in Rotherham, England, United Kingdom

Now
29 °F

Chilly.


Feels Like: 23 °F
Forecast: N/A
Wind: 6 mph from West

Location: Nottingham Weather Centre

Current Time: Feb 1, 2015 at 10:59:49 PM

Latest Report: Feb 1, 2015 at 10:00 PM


Visibility: 17 mi

Pressure: 29.70 "Hg

Humidity: 70%

Dew point: 20 °F

Location of RotherhamLocation

Historic Weather in Rotherham — Graph

°F

Rotherham temperature yesterday

Maximum temperature yesterday: 40 °F (at 12:00 PM)
Minimum temperature yesterday: 33 °F (at 12:00 AM)
Average temperature yesterday: 36 °F

Past Weeks' High & Low Weather Summary

 TemperatureHumidityPressure
High48 °F (Jan 26, 2:00 AM)99% (Jan 21, 4:00 PM)30.44 "Hg (Jan 21, 4:00 PM)
Low27 °F (Jan 20, 8:00 AM)59% (Feb 1, 4:00 PM)28.79 "Hg (Jan 29, 6:00 PM)
Average37 °F85%29.79 "Hg
* Reported Jan 17 10:00 PM — Feb 1 9:00 PM, Rotherham, Weather by CustomWeather, © 2014

Note: Actual official high and low records may vary slightly from our data, if they occured in-between our weather recording intervals... More about our weather records

Advertising

Rotherham weather history for previous 24 hours

 ConditionsComfort  
Time TempWeatherWind HumidityBarometerVisibility
9:00 PM
Feb 1
30 °FChilly.6 mph67%29.70 "Hg22 mi
8:00 PM31 °FChilly.5 mph67%29.70 "Hg19 mi
7:00 PM32 °FChilly.6 mph65%29.69 "Hg22 mi
6:00 PM33 °FChilly.7 mph63%29.67 "Hg22 mi
5:00 PM35 °FChilly.8 mph61%29.65 "Hg25 mi
4:00 PM37 °FChilly.12 mph59%29.64 "Hg31 mi
3:00 PM38 °FChilly.12 mph61%29.62 "Hg31 mi
2:00 PM37 °FChilly.8 mph64%29.61 "Hg28 mi
1:00 PM38 °FChilly.12 mph65%29.60 "Hg25 mi
12:00 PM37 °FChilly.10 mph66%29.58 "Hg25 mi
11:00 AM38 °FChilly.16 mph66%29.54 "Hg28 mi
10:00 AM37 °FChilly.15 mph68%29.50 "Hg25 mi
9:00 AM37 °FChilly.16 mph67%29.47 "Hg28 mi
8:00 AM37 °FChilly.14 mph67%29.44 "Hg31 mi
7:00 AM37 °FChilly.15 mph67%29.41 "Hg34 mi
6:00 AM38 °FChilly.15 mph66%29.38 "Hg37 mi
5:00 AM38 °FChilly.16 mph66%29.38 "Hg37 mi
4:00 AM37 °FChilly.14 mph68%29.35 "Hg34 mi
3:00 AM37 °FChilly.14 mph66%29.35 "Hg34 mi
2:00 AM36 °FChilly.12 mph68%29.32 "Hg31 mi
1:00 AM36 °FChilly.14 mph72%29.32 "Hg25 mi
12:00 AM36 °FChilly.12 mph66%29.32 "Hg31 mi
11:00 PM
Jan 31
36 °FChilly.10 mph65%29.32 "Hg31 mi
10:00 PM35 °FChilly.10 mph68%29.32 "Hg31 mi
Weather by CustomWeather, © 2014

See weather overviewHow to use our weather pages